TimeCDT,TemperatureF,Dew PointF,Humidity,Sea Level PressureIn,VisibilityMPH,Wind Direction,Wind SpeedMPH,Gust SpeedMPH,PrecipitationIn,Events,Conditions,WindDirDegrees,DateUTC
12:15 AM,32.0,23.0,69,30.04,10.0,East,5.8,-,N/A,,Mostly Cloudy,90,2013-03-22 05:15:00
12:35 AM,32.0,23.0,69,30.04,10.0,East,5.8,-,N/A,,Overcast,90,2013-03-22 05:35:00
12:55 AM,32.0,21.2,64,30.05,10.0,East,6.9,-,N/A,,Overcast,90,2013-03-22 05:55:00
1:15 AM,32.0,21.2,64,30.04,10.0,East,5.8,-,N/A,,Overcast,90,2013-03-22 06:15:00
1:35 AM,32.0,21.2,64,30.04,10.0,East,4.6,-,N/A,,Mostly Cloudy,100,2013-03-22 06:35:00
1:55 AM,32.0,21.2,64,30.04,10.0,East,4.6,-,N/A,,Mostly Cloudy,100,2013-03-22 06:55:00
2:15 AM,32.0,23.0,69,30.04,10.0,East,4.6,-,N/A,,Overcast,100,2013-03-22 07:15:00
2:35 AM,32.0,23.0,69,30.04,10.0,ESE,4.6,-,N/A,,Overcast,110,2013-03-22 07:35:00
2:55 AM,32.0,23.0,69,30.04,10.0,ESE,4.6,-,N/A,,Overcast,120,2013-03-22 07:55:00
3:15 AM,32.0,21.2,64,30.04,10.0,ESE,6.9,-,N/A,,Overcast,120,2013-03-22 08:15:00
3:35 AM,32.0,21.2,64,30.03,10.0,ESE,5.8,-,N/A,,Overcast,120,2013-03-22 08:35:00
3:55 AM,32.0,21.2,64,30.03,10.0,ESE,5.8,-,N/A,,Overcast,120,2013-03-22 08:55:00
4:15 AM,32.0,23.0,69,30.03,10.0,ESE,3.5,-,N/A,,Overcast,110,2013-03-22 09:15:00
4:35 AM,32.0,23.0,69,30.02,10.0,East,4.6,-,N/A,,Overcast,100,2013-03-22 09:35:00
4:55 AM,32.0,23.0,69,30.02,10.0,East,4.6,-,N/A,,Overcast,100,2013-03-22 09:55:00
5:15 AM,32.0,23.0,69,30.02,10.0,East,4.6,-,N/A,,Overcast,100,2013-03-22 10:15:00
5:35 AM,32.0,23.0,69,30.03,10.0,East,4.6,-,N/A,,Overcast,100,2013-03-22 10:35:00
5:55 AM,32.0,23.0,69,30.03,10.0,East,5.8,-,N/A,,Overcast,80,2013-03-22 10:55:00
6:15 AM,32.0,21.2,64,30.04,10.0,East,4.6,-,N/A,,Overcast,80,2013-03-22 11:15:00
6:35 AM,32.0,23.0,69,30.05,10.0,East,4.6,-,N/A,,Overcast,90,2013-03-22 11:35:00
6:55 AM,32.0,23.0,69,30.05,10.0,ENE,5.8,-,N/A,,Overcast,70,2013-03-22 11:55:00
7:15 AM,32.0,21.2,64,30.04,10.0,East,8.1,-,N/A,,Overcast,80,2013-03-22 12:15:00
7:35 AM,32.0,23.0,69,30.06,10.0,East,4.6,-,N/A,,Overcast,90,2013-03-22 12:35:00
7:55 AM,32.0,23.0,69,30.06,10.0,East,6.9,-,N/A,,Overcast,90,2013-03-22 12:55:00
8:15 AM,32.0,21.2,64,30.06,10.0,East,8.1,-,N/A,,Overcast,80,2013-03-22 13:15:00
8:35 AM,32.0,21.2,64,30.05,10.0,ENE,8.1,-,N/A,,Overcast,70,2013-03-22 13:35:00
8:55 AM,32.0,23.0,69,30.06,10.0,East,5.8,-,N/A,,Overcast,100,2013-03-22 13:55:00
9:15 AM,32.0,21.2,64,30.06,10.0,East,5.8,-,N/A,,Overcast,100,2013-03-22 14:15:00
9:35 AM,32.0,23.0,69,30.06,10.0,East,5.8,-,N/A,,Overcast,90,2013-03-22 14:35:00
9:55 AM,33.8,21.2,60,30.06,10.0,East,8.1,-,N/A,,Overcast,100,2013-03-22 14:55:00
10:15 AM,33.8,21.2,60,30.06,10.0,East,8.1,-,N/A,,Overcast,80,2013-03-22 15:15:00
10:35 AM,33.8,21.2,60,30.06,10.0,ESE,6.9,-,N/A,,Overcast,110,2013-03-22 15:35:00
10:55 AM,35.6,21.2,56,30.06,10.0,East,5.8,-,N/A,,Overcast,100,2013-03-22 15:55:00
11:15 AM,35.6,23.0,60,30.06,10.0,ESE,5.8,-,N/A,,Overcast,110,2013-03-22 16:15:00
11:35 AM,35.6,23.0,60,30.06,10.0,ENE,5.8,-,N/A,,Overcast,70,2013-03-22 16:35:00
11:55 AM,35.6,23.0,60,30.06,10.0,East,5.8,-,N/A,,Overcast,90,2013-03-22 16:55:00
12:15 PM,35.6,21.2,56,30.06,10.0,East,4.6,-,N/A,,Overcast,90,2013-03-22 17:15:00
12:35 PM,35.6,23.0,60,30.06,10.0,East,6.9,-,N/A,,Overcast,90,2013-03-22 17:35:00
12:55 PM,37.4,23.0,56,30.04,10.0,East,5.8,-,N/A,,Mostly Cloudy,90,2013-03-22 17:55:00
1:15 PM,37.4,23.0,56,30.04,10.0,ESE,8.1,-,N/A,,Mostly Cloudy,110,2013-03-22 18:15:00
1:35 PM,37.4,23.0,56,30.04,10.0,SE,8.1,-,N/A,,Overcast,130,2013-03-22 18:35:00
1:55 PM,39.2,23.0,52,30.03,10.0,ESE,9.2,-,N/A,,Overcast,120,2013-03-22 18:55:00
2:15 PM,39.2,23.0,52,30.02,10.0,SE,6.9,-,N/A,,Mostly Cloudy,130,2013-03-22 19:15:00
2:35 PM,41.0,23.0,49,30.02,10.0,ESE,9.2,-,N/A,,Overcast,120,2013-03-22 19:35:00
2:55 PM,41.0,23.0,49,30.01,10.0,ESE,8.1,-,N/A,,Overcast,110,2013-03-22 19:55:00
3:15 PM,41.0,23.0,49,30.00,10.0,ESE,6.9,-,N/A,,Overcast,110,2013-03-22 20:15:00
3:35 PM,41.0,23.0,49,30.00,10.0,ENE,6.9,-,N/A,,Overcast,70,2013-03-22 20:35:00
3:55 PM,41.0,23.0,49,30.00,10.0,East,6.9,-,N/A,,Overcast,100,2013-03-22 20:55:00
4:15 PM,39.2,23.0,52,30.00,10.0,ENE,6.9,-,N/A,,Overcast,70,2013-03-22 21:15:00
4:35 PM,41.0,23.0,49,30.00,10.0,East,5.8,-,N/A,,Overcast,80,2013-03-22 21:35:00
4:55 PM,39.2,23.0,52,30.00,10.0,ENE,6.9,-,N/A,,Overcast,70,2013-03-22 21:55:00
5:15 PM,39.2,23.0,52,30.01,10.0,East,6.9,-,N/A,,Overcast,100,2013-03-22 22:15:00
5:35 PM,41.0,24.8,53,30.01,10.0,East,6.9,-,N/A,,Overcast,100,2013-03-22 22:35:00
5:55 PM,39.2,23.0,52,30.01,10.0,East,5.8,-,N/A,,Overcast,100,2013-03-22 22:55:00
6:15 PM,39.2,24.8,56,30.01,10.0,ENE,4.6,-,N/A,,Overcast,60,2013-03-22 23:15:00
6:35 PM,39.2,24.8,56,30.01,10.0,ENE,8.1,-,N/A,,Overcast,60,2013-03-22 23:35:00
6:55 PM,37.4,24.8,60,30.01,10.0,ENE,6.9,-,N/A,,Overcast,70,2013-03-22 23:55:00
7:15 PM,37.4,26.6,65,30.01,10.0,East,4.6,-,N/A,,Overcast,90,2013-03-23 00:15:00
7:35 PM,37.4,26.6,65,30.01,10.0,East,5.8,-,N/A,,Overcast,80,2013-03-23 00:35:00
7:55 PM,37.4,26.6,65,30.02,10.0,ENE,3.5,-,N/A,,Overcast,60,2013-03-23 00:55:00
8:15 PM,37.4,26.6,65,30.02,10.0,ENE,4.6,-,N/A,,Overcast,60,2013-03-23 01:15:00
8:35 PM,37.4,26.6,65,30.02,10.0,ENE,5.8,-,N/A,,Overcast,60,2013-03-23 01:35:00
8:55 PM,37.4,26.6,65,30.03,10.0,ENE,4.6,-,N/A,,Overcast,60,2013-03-23 01:55:00
9:15 PM,37.4,24.8,60,30.03,10.0,ENE,4.6,-,N/A,,Overcast,60,2013-03-23 02:15:00
9:35 PM,37.4,26.6,65,30.02,10.0,ENE,5.8,-,N/A,,Overcast,60,2013-03-23 02:35:00
9:55 PM,37.4,24.8,60,30.02,10.0,ENE,5.8,-,N/A,,Overcast,60,2013-03-23 02:55:00
10:15 PM,37.4,24.8,60,30.03,10.0,ENE,4.6,-,N/A,,Overcast,60,2013-03-23 03:15:00
10:35 PM,37.4,24.8,60,30.03,10.0,NE,3.5,-,N/A,,Overcast,50,2013-03-23 03:35:00
10:55 PM,37.4,26.6,65,30.03,10.0,ENE,4.6,-,N/A,,Overcast,70,2013-03-23 03:55:00
11:15 PM,37.4,26.6,65,30.03,10.0,ENE,4.6,-,N/A,,Overcast,60,2013-03-23 04:15:00
11:35 PM,37.4,26.6,65,30.03,10.0,NE,4.6,-,N/A,,Overcast,50,2013-03-23 04:35:00
11:55 PM,37.4,26.6,65,30.02,10.0,NE,5.8,-,N/A,,Overcast,50,2013-03-23 04:55:00